Time,TemperatureF,DewpointF,PressureIn,WindDirection,WindDirectionDegrees,WindSpeedMPH,WindSpeedGustMPH,Humidity,HourlyPrecipIn,Conditions,Clouds,dailyrainin,SoftwareType,DateUTC
2013-11-06 00:01:00,41.3,36.0,30.51,ESE,112,3.5,4.0,80,0.00,,,0.00,Rainwise IP-100,2013-11-06 05:01:00,
2013-11-06 00:06:00,41.2,36.0,30.51,SSE,157,2.6,4.0,80,0.00,,,0.00,Rainwise IP-100,2013-11-06 05:06:00,
2013-11-06 00:11:00,41.3,36.0,30.51,SSE,157,3.0,4.0,81,0.00,,,0.00,Rainwise IP-100,2013-11-06 05:11:00,
2013-11-06 00:16:00,41.4,36.0,30.51,SSE,157,3.3,4.0,81,0.00,,,0.00,Rainwise IP-100,2013-11-06 05:16:00,
2013-11-06 00:21:00,41.5,37.0,30.51,SSE,157,1.9,3.0,81,0.00,,,0.00,Rainwise IP-100,2013-11-06 05:21:00,
2013-11-06 00:26:00,41.5,37.0,30.51,SSE,157,2.3,3.0,81,0.00,,,0.00,Rainwise IP-100,2013-11-06 05:26:00,
2013-11-06 00:31:00,41.5,37.0,30.51,SSE,157,2.1,4.0,81,0.00,,,0.00,Rainwise IP-100,2013-11-06 05:31:00,
2013-11-06 00:36:00,41.7,37.0,30.51,South,180,1.6,3.0,81,0.00,,,0.00,Rainwise IP-100,2013-11-06 05:36:00,
2013-11-06 00:41:00,41.8,37.0,30.51,SSE,157,3.3,3.3,81,0.00,,,0.00,Rainwise IP-100,2013-11-06 05:41:00,
2013-11-06 00:46:00,41.8,37.0,30.51,SSE,157,0.0,3.0,81,0.00,,,0.00,Rainwise IP-100,2013-11-06 05:46:00,
2013-11-06 00:51:00,41.9,37.0,30.51,SW,225,2.6,3.0,81,0.00,,,0.00,Rainwise IP-100,2013-11-06 05:51:00,
2013-11-06 00:56:00,42.0,37.0,30.51,South,180,1.6,4.0,81,0.00,,,0.00,Rainwise IP-100,2013-11-06 05:56:00,
2013-11-06 01:01:00,42.1,37.0,30.51,SSE,157,2.3,4.0,81,0.00,,,0.00,Rainwise IP-100,2013-11-06 06:01:00,
2013-11-06 01:06:00,42.2,37.0,30.51,SSE,157,1.4,3.0,81,0.00,,,0.00,Rainwise IP-100,2013-11-06 06:06:00,
2013-11-06 01:11:00,42.1,37.0,30.50,SSE,157,1.9,3.0,81,0.00,,,0.00,Rainwise IP-100,2013-11-06 06:11:00,
2013-11-06 01:16:00,42.1,37.0,30.51,SSE,157,1.4,3.0,81,0.00,,,0.00,Rainwise IP-100,2013-11-06 06:16:00,
2013-11-06 01:21:00,42.1,37.0,30.51,SSE,157,1.9,4.0,81,0.00,,,0.00,Rainwise IP-100,2013-11-06 06:21:00,
2013-11-06 01:26:00,42.2,37.0,30.51,SSW,202,2.6,4.0,81,0.00,,,0.00,Rainwise IP-100,2013-11-06 06:26:00,
2013-11-06 01:31:00,42.2,37.0,30.51,SSE,157,1.4,3.0,81,0.00,,,0.00,Rainwise IP-100,2013-11-06 06:31:00,
2013-11-06 01:36:00,42.3,37.0,30.51,SSE,157,0.0,3.0,81,0.00,,,0.00,Rainwise IP-100,2013-11-06 06:36:00,
2013-11-06 01:41:00,42.4,37.0,30.50,SSE,157,2.6,3.0,81,0.00,,,0.00,Rainwise IP-100,2013-11-06 06:41:00,
2013-11-06 01:46:00,42.4,37.0,30.50,SSE,157,2.3,4.0,81,0.00,,,0.00,Rainwise IP-100,2013-11-06 06:46:00,
2013-11-06 01:51:00,42.3,37.0,30.50,SE,135,1.4,4.0,81,0.00,,,0.00,Rainwise IP-100,2013-11-06 06:51:00,
2013-11-06 01:56:00,42.4,37.0,30.49,SSE,157,1.9,4.0,81,0.00,,,0.00,Rainwise IP-100,2013-11-06 06:56:00,
2013-11-06 02:01:00,42.5,37.0,30.49,SSE,157,2.3,3.0,80,0.00,,,0.00,Rainwise IP-100,2013-11-06 07:01:00,
2013-11-06 02:06:00,42.6,37.0,30.49,SSE,157,2.8,3.0,80,0.00,,,0.00,Rainwise IP-100,2013-11-06 07:06:00,
2013-11-06 02:11:00,42.7,37.0,30.49,SSE,157,2.3,3.0,80,0.00,,,0.00,Rainwise IP-100,2013-11-06 07:11:00,
2013-11-06 02:16:00,42.8,37.0,30.49,SSE,157,2.1,2.1,79,0.00,,,0.00,Rainwise IP-100,2013-11-06 07:16:00,
2013-11-06 02:21:00,42.7,37.0,30.48,SE,135,1.9,3.0,79,0.00,,,0.00,Rainwise IP-100,2013-11-06 07:21:00,
2013-11-06 02:26:00,42.5,37.0,30.48,SSE,157,1.6,3.0,79,0.00,,,0.00,Rainwise IP-100,2013-11-06 07:26:00,
2013-11-06 02:31:00,42.5,37.0,30.48,SSE,157,2.6,3.0,80,0.00,,,0.00,Rainwise IP-100,2013-11-06 07:31:00,
2013-11-06 02:36:00,42.6,37.0,30.48,SSE,157,2.3,3.0,80,0.00,,,0.00,Rainwise IP-100,2013-11-06 07:36:00,
2013-11-06 02:41:00,42.6,37.0,30.47,SSE,157,2.6,3.0,79,0.00,,,0.00,Rainwise IP-100,2013-11-06 07:41:00,
2013-11-06 02:46:00,42.7,37.0,30.47,SSE,157,1.9,3.0,79,0.00,,,0.00,Rainwise IP-100,2013-11-06 07:46:00,
2013-11-06 02:51:00,42.5,37.0,30.47,SSE,157,2.3,2.3,79,0.00,,,0.00,Rainwise IP-100,2013-11-06 07:51:00,
2013-11-06 02:56:00,42.2,36.0,30.47,SE,135,2.8,3.0,79,0.00,,,0.00,Rainwise IP-100,2013-11-06 07:56:00,
2013-11-06 03:01:00,41.9,37.0,30.47,ESE,112,2.3,3.0,80,0.00,,,0.00,Rainwise IP-100,2013-11-06 08:01:00,
2013-11-06 03:06:00,41.5,37.0,30.47,SE,135,0.0,4.0,81,0.00,,,0.00,Rainwise IP-100,2013-11-06 08:06:00,
2013-11-06 03:11:00,41.2,36.0,30.47,SSE,157,2.3,4.0,81,0.00,,,0.00,Rainwise IP-100,2013-11-06 08:11:00,
2013-11-06 03:16:00,41.0,36.0,30.47,SE,135,2.6,3.0,82,0.00,,,0.00,Rainwise IP-100,2013-11-06 08:16:00,
2013-11-06 03:21:00,41.0,37.0,30.47,SE,135,1.4,3.0,83,0.00,,,0.00,Rainwise IP-100,2013-11-06 08:21:00,
2013-11-06 03:26:00,41.2,37.0,30.47,SSE,157,2.3,2.3,83,0.00,,,0.00,Rainwise IP-100,2013-11-06 08:26:00,
2013-11-06 03:31:00,41.5,37.0,30.47,SSE,157,2.6,3.0,83,0.00,,,0.00,Rainwise IP-100,2013-11-06 08:31:00,
2013-11-06 03:36:00,41.8,37.0,30.47,SSE,157,1.9,4.0,82,0.00,,,0.00,Rainwise IP-100,2013-11-06 08:36:00,
2013-11-06 03:41:00,41.8,37.0,30.47,SSE,157,1.4,3.0,82,0.00,,,0.00,Rainwise IP-100,2013-11-06 08:41:00,
2013-11-06 03:46:00,41.9,37.0,30.47,SSE,157,2.8,4.0,82,0.00,,,0.00,Rainwise IP-100,2013-11-06 08:46:00,
2013-11-06 03:51:00,42.0,37.0,30.47,South,180,2.1,4.0,82,0.00,,,0.00,Rainwise IP-100,2013-11-06 08:51:00,
2013-11-06 03:56:00,42.1,37.0,30.47,South,180,2.3,3.0,82,0.00,,,0.00,Rainwise IP-100,2013-11-06 08:56:00,
2013-11-06 04:01:00,42.2,37.0,30.47,SSE,157,2.1,4.0,82,0.00,,,0.00,Rainwise IP-100,2013-11-06 09:01:00,
2013-11-06 04:06:00,42.3,37.0,30.47,SE,135,0.0,3.0,82,0.00,,,0.00,Rainwise IP-100,2013-11-06 09:06:00,
2013-11-06 04:11:00,42.3,37.0,30.46,SSW,202,2.6,4.0,82,0.00,,,0.00,Rainwise IP-100,2013-11-06 09:11:00,
2013-11-06 04:16:00,42.3,37.0,30.46,SSE,157,3.5,4.0,82,0.00,,,0.00,Rainwise IP-100,2013-11-06 09:16:00,
2013-11-06 04:21:00,42.3,37.0,30.46,SSE,157,3.5,4.0,82,0.00,,,0.00,Rainwise IP-100,2013-11-06 09:21:00,
2013-11-06 04:26:00,42.4,37.0,30.46,ESE,112,2.8,5.0,82,0.00,,,0.00,Rainwise IP-100,2013-11-06 09:26:00,
2013-11-06 04:31:00,42.5,38.0,30.46,SE,135,2.3,4.0,82,0.00,,,0.00,Rainwise IP-100,2013-11-06 09:31:00,
2013-11-06 04:36:00,42.5,38.0,30.46,SE,135,2.3,3.0,82,0.00,,,0.00,Rainwise IP-100,2013-11-06 09:36:00,
2013-11-06 04:41:00,42.4,37.0,30.45,SSE,157,2.1,4.0,82,0.00,,,0.00,Rainwise IP-100,2013-11-06 09:41:00,
2013-11-06 04:46:00,42.2,37.0,30.46,SE,135,2.1,4.0,83,0.00,,,0.00,Rainwise IP-100,2013-11-06 09:46:00,
2013-11-06 04:51:00,42.2,37.0,30.45,SE,135,3.7,4.0,83,0.00,,,0.00,Rainwise IP-100,2013-11-06 09:51:00,
2013-11-06 04:56:00,42.2,37.0,30.45,SE,135,2.6,3.0,83,0.00,,,0.00,Rainwise IP-100,2013-11-06 09:56:00,
2013-11-06 05:01:00,42.2,37.0,30.45,SSE,157,2.3,3.0,83,0.00,,,0.00,Rainwise IP-100,2013-11-06 10:01:00,
2013-11-06 05:06:00,42.1,37.0,30.45,SSE,157,2.1,4.0,83,0.00,,,0.00,Rainwise IP-100,2013-11-06 10:06:00,
2013-11-06 05:11:00,42.4,38.0,30.46,SSE,157,1.2,4.0,84,0.00,,,0.00,Rainwise IP-100,2013-11-06 10:11:00,
2013-11-06 05:16:00,42.7,38.0,30.46,SSE,157,2.1,3.0,83,0.00,,,0.00,Rainwise IP-100,2013-11-06 10:16:00,
2013-11-06 05:21:00,42.8,38.0,30.46,SE,135,2.3,3.0,83,0.00,,,0.00,Rainwise IP-100,2013-11-06 10:21:00,
2013-11-06 05:26:00,42.9,38.0,30.45,SSE,157,2.1,3.0,83,0.00,,,0.00,Rainwise IP-100,2013-11-06 10:26:00,
2013-11-06 05:31:00,43.0,38.0,30.46,SSW,202,2.3,4.0,83,0.00,,,0.00,Rainwise IP-100,2013-11-06 10:31:00,
2013-11-06 05:36:00,43.1,38.0,30.45,SSE,157,2.6,4.0,83,0.00,,,0.00,Rainwise IP-100,2013-11-06 10:36:00,
2013-11-06 05:41:00,43.2,38.0,30.45,South,180,0.0,3.0,83,0.00,,,0.00,Rainwise IP-100,2013-11-06 10:41:00,
2013-11-06 05:46:00,43.3,38.0,30.46,SSE,157,1.9,3.0,83,0.00,,,0.00,Rainwise IP-100,2013-11-06 10:46:00,
2013-11-06 05:51:00,43.3,38.0,30.46,SSE,157,1.6,3.0,83,0.00,,,0.00,Rainwise IP-100,2013-11-06 10:51:00,
2013-11-06 05:56:00,43.4,38.0,30.46,SSW,202,1.4,4.0,83,0.00,,,0.00,Rainwise IP-100,2013-11-06 10:56:00,
2013-11-06 06:01:00,43.5,39.0,30.46,SSW,202,0.0,3.0,84,0.00,,,0.00,Rainwise IP-100,2013-11-06 11:01:00,
2013-11-06 06:07:00,43.7,39.0,30.45,SSE,157,1.6,3.0,84,0.00,,,0.00,Rainwise IP-100,2013-11-06 11:07:00,
2013-11-06 06:12:00,43.7,39.0,30.46,SSE,157,2.1,3.0,84,0.00,,,0.00,Rainwise IP-100,2013-11-06 11:12:00,
2013-11-06 06:17:00,43.6,39.0,30.45,SSE,157,1.9,3.0,84,0.00,,,0.00,Rainwise IP-100,2013-11-06 11:17:00,
2013-11-06 06:22:00,43.6,39.0,30.45,SSE,157,2.1,3.0,84,0.00,,,0.00,Rainwise IP-100,2013-11-06 11:22:00,
2013-11-06 06:27:00,43.6,39.0,30.45,SSE,157,2.3,4.0,84,0.00,,,0.00,Rainwise IP-100,2013-11-06 11:27:00,
2013-11-06 06:32:00,43.5,39.0,30.45,SSE,157,2.3,4.0,84,0.00,,,0.00,Rainwise IP-100,2013-11-06 11:32:00,
2013-11-06 06:37:00,43.5,39.0,30.45,SSE,157,2.6,4.0,84,0.00,,,0.00,Rainwise IP-100,2013-11-06 11:37:00,
2013-11-06 06:42:00,43.5,39.0,30.45,SSE,157,2.1,4.0,84,0.00,,,0.00,Rainwise IP-100,2013-11-06 11:42:00,
2013-11-06 06:47:00,43.4,39.0,30.45,SSE,157,3.0,4.0,84,0.00,,,0.00,Rainwise IP-100,2013-11-06 11:47:00,
2013-11-06 06:52:00,43.5,40.0,30.45,SSE,157,1.9,4.0,85,0.00,,,0.00,Rainwise IP-100,2013-11-06 11:52:00,
2013-11-06 06:57:00,43.5,40.0,30.46,South,180,2.6,3.0,85,0.00,,,0.00,Rainwise IP-100,2013-11-06 11:57:00,
2013-11-06 07:02:00,43.6,40.0,30.46,SSE,157,2.1,4.0,85,0.00,,,0.00,Rainwise IP-100,2013-11-06 12:02:00,
2013-11-06 07:07:00,43.7,40.0,30.45,SE,135,1.6,4.0,85,0.00,,,0.00,Rainwise IP-100,2013-11-06 12:07:00,
2013-11-06 07:12:00,43.7,40.0,30.45,SE,135,1.6,4.0,85,0.00,,,0.00,Rainwise IP-100,2013-11-06 12:12:00,
2013-11-06 07:17:00,43.8,40.0,30.45,SSE,157,2.8,4.0,85,0.00,,,0.00,Rainwise IP-100,2013-11-06 12:17:00,
2013-11-06 07:22:00,43.9,40.0,30.45,SSE,157,1.9,4.0,85,0.00,,,0.00,Rainwise IP-100,2013-11-06 12:22:00,
2013-11-06 07:27:00,44.1,40.0,30.44,SE,135,1.2,4.0,85,0.00,,,0.00,Rainwise IP-100,2013-11-06 12:27:00,
2013-11-06 07:32:00,44.3,40.0,30.44,SSE,157,2.1,3.0,85,0.00,,,0.00,Rainwise IP-100,2013-11-06 12:32:00,
2013-11-06 07:37:00,44.4,40.0,30.44,SSE,157,2.3,3.0,85,0.00,,,0.00,Rainwise IP-100,2013-11-06 12:37:00,
2013-11-06 07:42:00,44.5,41.0,30.44,SE,135,2.3,3.0,85,0.00,,,0.00,Rainwise IP-100,2013-11-06 12:42:00,
2013-11-06 07:47:00,44.5,41.0,30.44,SE,135,1.6,3.0,85,0.00,,,0.00,Rainwise IP-100,2013-11-06 12:47:00,
2013-11-06 07:52:00,44.6,41.0,30.44,SSE,157,1.6,4.0,85,0.00,,,0.00,Rainwise IP-100,2013-11-06 12:52:00,
2013-11-06 07:57:00,45.0,41.0,30.45,SSE,157,2.1,5.0,85,0.00,,,0.00,Rainwise IP-100,2013-11-06 12:57:00,
2013-11-06 08:02:00,45.5,41.0,30.45,SSE,157,2.6,6.0,85,0.00,,,0.00,Rainwise IP-100,2013-11-06 13:02:00,
2013-11-06 08:07:00,46.2,41.0,30.45,SSE,157,4.9,6.0,85,0.00,,,0.00,Rainwise IP-100,2013-11-06 13:07:00,
2013-11-06 08:12:00,46.9,42.0,30.45,SE,135,2.8,5.0,84,0.00,,,0.00,Rainwise IP-100,2013-11-06 13:12:00,
2013-11-06 08:17:00,47.7,43.0,30.45,WSW,247,1.6,5.0,84,0.00,,,0.00,Rainwise IP-100,2013-11-06 13:17:00,
2013-11-06 08:22:00,48.6,44.0,30.45,SW,225,2.1,5.0,83,0.00,,,0.00,Rainwise IP-100,2013-11-06 13:22:00,
2013-11-06 08:27:00,49.3,43.0,30.44,SSW,202,2.6,7.0,79,0.00,,,0.00,Rainwise IP-100,2013-11-06 13:27:00,
2013-11-06 08:32:00,49.5,42.0,30.44,SSW,202,0.0,6.0,76,0.00,,,0.00,Rainwise IP-100,2013-11-06 13:32:00,
2013-11-06 08:37:00,49.5,42.0,30.44,SSW,202,4.0,6.0,75,0.00,,,0.00,Rainwise IP-100,2013-11-06 13:37:00,
2013-11-06 08:42:00,49.6,42.0,30.44,SSW,202,4.0,6.0,75,0.00,,,0.00,Rainwise IP-100,2013-11-06 13:42:00,
2013-11-06 08:47:00,50.0,42.0,30.44,SW,225,3.0,5.0,75,0.00,,,0.00,Rainwise IP-100,2013-11-06 13:47:00,
2013-11-06 08:52:00,50.4,43.0,30.43,SSW,202,3.5,7.0,75,0.00,,,0.00,Rainwise IP-100,2013-11-06 13:52:00,
2013-11-06 08:57:00,50.4,42.0,30.43,WSW,247,1.4,7.0,74,0.00,,,0.00,Rainwise IP-100,2013-11-06 13:57:00,
2013-11-06 09:02:00,50.4,42.0,30.43,SSE,157,4.0,5.0,74,0.00,,,0.00,Rainwise IP-100,2013-11-06 14:02:00,
2013-11-06 09:07:00,50.5,42.0,30.43,SE,135,0.0,7.0,74,0.00,,,0.00,Rainwise IP-100,2013-11-06 14:07:00,
2013-11-06 09:12:00,50.5,42.0,30.43,WSW,247,3.0,5.0,73,0.00,,,0.00,Rainwise IP-100,2013-11-06 14:12:00,
2013-11-06 09:17:00,50.6,42.0,30.43,WSW,247,3.5,6.0,73,0.00,,,0.00,Rainwise IP-100,2013-11-06 14:17:00,
2013-11-06 09:22:00,50.4,42.0,30.43,SW,225,4.7,8.0,73,0.00,,,0.00,Rainwise IP-100,2013-11-06 14:22:00,
2013-11-06 09:27:00,50.2,41.0,30.43,SW,225,3.0,6.0,73,0.00,,,0.00,Rainwise IP-100,2013-11-06 14:27:00,
2013-11-06 09:32:00,50.4,42.0,30.43,West,270,3.5,7.0,74,0.00,,,0.00,Rainwise IP-100,2013-11-06 14:32:00,
2013-11-06 09:37:00,50.3,42.0,30.42,WSW,247,2.6,9.0,74,0.00,,,0.00,Rainwise IP-100,2013-11-06 14:37:00,
2013-11-06 09:42:00,50.4,42.0,30.43,SSW,202,1.2,5.0,74,0.00,,,0.00,Rainwise IP-100,2013-11-06 14:42:00,
2013-11-06 09:47:00,50.6,42.0,30.42,SSW,202,0.0,7.0,74,0.00,,,0.00,Rainwise IP-100,2013-11-06 14:47:00,
2013-11-06 09:52:00,50.8,42.0,30.43,SSW,202,4.2,8.0,74,0.00,,,0.00,Rainwise IP-100,2013-11-06 14:52:00,
2013-11-06 09:57:00,51.0,43.0,30.42,SW,225,2.1,7.0,73,0.00,,,0.00,Rainwise IP-100,2013-11-06 14:57:00,
2013-11-06 10:02:00,51.1,43.0,30.42,NW,315,0.0,6.0,73,0.00,,,0.00,Rainwise IP-100,2013-11-06 15:02:00,
2013-11-06 10:07:00,51.5,43.0,30.42,SSW,202,3.3,7.0,73,0.00,,,0.00,Rainwise IP-100,2013-11-06 15:07:00,
2013-11-06 10:12:00,52.2,43.0,30.41,NE,45,0.0,9.0,73,0.00,,,0.00,Rainwise IP-100,2013-11-06 15:12:00,
2013-11-06 10:17:00,52.5,43.0,30.41,SSW,202,2.3,9.0,70,0.00,,,0.00,Rainwise IP-100,2013-11-06 15:17:00,
2013-11-06 10:22:00,52.2,42.0,30.41,SSW,202,4.9,9.0,69,0.00,,,0.00,Rainwise IP-100,2013-11-06 15:22:00,
2013-11-06 10:27:00,52.0,42.0,30.40,SW,225,2.1,10.0,69,0.00,,,0.00,Rainwise IP-100,2013-11-06 15:27:00,
2013-11-06 10:32:00,52.4,42.0,30.40,WSW,247,2.3,9.0,70,0.00,,,0.00,Rainwise IP-100,2013-11-06 15:32:00,
2013-11-06 10:37:00,52.9,43.0,30.40,SSW,202,6.3,9.0,70,0.00,,,0.00,Rainwise IP-100,2013-11-06 15:37:00,
2013-11-06 10:42:00,52.8,43.0,30.39,South,180,2.3,8.0,69,0.00,,,0.00,Rainwise IP-100,2013-11-06 15:42:00,
2013-11-06 10:47:00,52.4,42.0,30.40,WSW,247,4.0,7.0,70,0.00,,,0.00,Rainwise IP-100,2013-11-06 15:47:00,
2013-11-06 10:52:00,52.5,43.0,30.39,SW,225,4.0,10.0,71,0.00,,,0.00,Rainwise IP-100,2013-11-06 15:52:00,
2013-11-06 10:57:00,52.4,42.0,30.39,WSW,247,7.7,10.0,69,0.00,,,0.00,Rainwise IP-100,2013-11-06 15:57:00,
2013-11-06 11:02:00,52.1,42.0,30.38,South,180,4.7,14.0,69,0.00,,,0.00,Rainwise IP-100,2013-11-06 16:02:00,
2013-11-06 11:07:00,52.3,42.0,30.38,WSW,247,3.0,8.0,69,0.00,,,0.00,Rainwise IP-100,2013-11-06 16:07:00,
2013-11-06 11:12:00,52.4,42.0,30.37,WNW,292,3.0,11.0,69,0.00,,,0.00,Rainwise IP-100,2013-11-06 16:12:00,
2013-11-06 11:17:00,52.3,42.0,30.37,WSW,247,8.9,10.0,69,0.00,,,0.00,Rainwise IP-100,2013-11-06 16:17:00,
2013-11-06 11:22:00,52.4,42.0,30.36,West,270,5.8,9.0,69,0.00,,,0.00,Rainwise IP-100,2013-11-06 16:22:00,
2013-11-06 11:27:00,52.8,43.0,30.36,SSW,202,5.8,9.0,69,0.00,,,0.00,Rainwise IP-100,2013-11-06 16:27:00,
2013-11-06 11:32:00,53.0,42.0,30.36,SSW,202,4.7,8.0,68,0.00,,,0.00,Rainwise IP-100,2013-11-06 16:32:00,
2013-11-06 11:37:00,53.1,42.0,30.36,WSW,247,5.6,11.0,67,0.00,,,0.00,Rainwise IP-100,2013-11-06 16:37:00,
2013-11-06 11:42:00,53.2,42.0,30.35,WSW,247,4.0,11.0,67,0.00,,,0.00,Rainwise IP-100,2013-11-06 16:42:00,
2013-11-06 11:47:00,53.3,42.0,30.35,SW,225,5.4,9.0,67,0.00,,,0.00,Rainwise IP-100,2013-11-06 16:47:00,
2013-11-06 11:52:00,53.7,42.0,30.35,WSW,247,5.8,7.0,67,0.00,,,0.00,Rainwise IP-100,2013-11-06 16:52:00,
2013-11-06 11:57:00,53.8,42.0,30.34,WSW,247,11.7,11.7,67,0.00,,,0.00,Rainwise IP-100,2013-11-06 16:57:00,
2013-11-06 12:02:00,53.7,42.0,30.34,SSW,202,6.5,11.0,66,0.00,,,0.00,Rainwise IP-100,2013-11-06 17:02:00,
2013-11-06 12:07:00,53.6,42.0,30.34,SW,225,4.2,12.0,67,0.00,,,0.00,Rainwise IP-100,2013-11-06 17:07:00,
2013-11-06 12:12:00,53.6,42.0,30.34,SW,225,4.4,11.0,67,0.00,,,0.00,Rainwise IP-100,2013-11-06 17:12:00,
2013-11-06 12:17:00,53.7,42.0,30.33,SSW,202,6.5,11.0,67,0.00,,,0.00,Rainwise IP-100,2013-11-06 17:17:00,
2013-11-06 12:22:00,53.8,42.0,30.33,SSW,202,5.6,11.0,67,0.00,,,0.00,Rainwise IP-100,2013-11-06 17:22:00,
2013-11-06 12:27:00,54.1,44.0,30.33,SW,225,9.3,11.0,68,0.00,,,0.00,Rainwise IP-100,2013-11-06 17:27:00,
2013-11-06 12:32:00,54.2,44.0,30.33,SW,225,3.3,14.0,68,0.00,,,0.00,Rainwise IP-100,2013-11-06 17:32:00,
2013-11-06 12:37:00,54.3,44.0,30.33,SSW,202,3.0,10.0,68,0.00,,,0.00,Rainwise IP-100,2013-11-06 17:37:00,
2013-11-06 12:42:00,54.3,44.0,30.33,SW,225,1.2,13.0,68,0.00,,,0.00,Rainwise IP-100,2013-11-06 17:42:00,
2013-11-06 12:47:00,54.3,44.0,30.32,SSE,157,5.1,12.0,68,0.00,,,0.00,Rainwise IP-100,2013-11-06 17:47:00,
2013-11-06 12:52:00,54.4,45.0,30.32,SE,135,9.1,12.0,69,0.00,,,0.00,Rainwise IP-100,2013-11-06 17:52:00,
2013-11-06 12:57:00,54.3,44.0,30.32,West,270,3.3,13.0,69,0.00,,,0.00,Rainwise IP-100,2013-11-06 17:57:00,
2013-11-06 13:02:00,54.3,44.0,30.32,SSW,202,6.5,10.0,69,0.00,,,0.00,Rainwise IP-100,2013-11-06 18:02:00,
2013-11-06 13:07:00,54.4,45.0,30.31,SW,225,9.6,11.0,70,0.00,,,0.00,Rainwise IP-100,2013-11-06 18:07:00,
2013-11-06 13:12:00,54.3,44.0,30.31,SW,225,0.0,13.0,70,0.00,,,0.00,Rainwise IP-100,2013-11-06 18:12:00,
2013-11-06 13:17:00,54.6,46.0,30.32,West,270,8.2,14.0,71,0.00,,,0.00,Rainwise IP-100,2013-11-06 18:17:00,
2013-11-06 13:22:00,54.7,46.0,30.31,South,180,5.6,15.0,71,0.00,,,0.00,Rainwise IP-100,2013-11-06 18:22:00,
2013-11-06 13:27:00,54.5,46.0,30.31,WSW,247,4.0,13.0,71,0.00,,,0.00,Rainwise IP-100,2013-11-06 18:27:00,
2013-11-06 13:32:00,54.5,46.0,30.30,SW,225,8.4,11.0,71,0.00,,,0.00,Rainwise IP-100,2013-11-06 18:32:00,
2013-11-06 13:37:00,54.7,46.0,30.30,South,180,8.4,9.0,72,0.00,,,0.00,Rainwise IP-100,2013-11-06 18:37:00,
2013-11-06 13:42:00,54.3,45.0,30.30,WSW,247,3.7,11.0,72,0.00,,,0.00,Rainwise IP-100,2013-11-06 18:42:00,
2013-11-06 13:47:00,54.2,45.0,30.30,SSE,157,1.9,10.0,72,0.00,,,0.00,Rainwise IP-100,2013-11-06 18:47:00,
2013-11-06 13:52:00,54.8,46.0,30.29,South,180,5.4,12.0,73,0.00,,,0.00,Rainwise IP-100,2013-11-06 18:52:00,
2013-11-06 13:57:00,55.0,47.0,30.29,WSW,247,3.3,12.0,72,0.00,,,0.00,Rainwise IP-100,2013-11-06 18:57:00,
2013-11-06 14:02:00,55.0,47.0,30.29,SW,225,6.3,6.3,72,0.00,,,0.00,Rainwise IP-100,2013-11-06 19:02:00,
2013-11-06 14:07:00,55.0,47.0,30.29,SE,135,0.0,11.0,73,0.00,,,0.00,Rainwise IP-100,2013-11-06 19:07:00,
2013-11-06 14:12:00,55.1,47.0,30.29,SW,225,2.6,13.0,73,0.00,,,0.00,Rainwise IP-100,2013-11-06 19:12:00,
2013-11-06 14:17:00,55.3,47.0,30.29,SW,225,4.2,15.0,72,0.00,,,0.00,Rainwise IP-100,2013-11-06 19:17:00,
2013-11-06 14:22:00,55.1,47.0,30.29,WSW,247,7.9,13.0,72,0.00,,,0.00,Rainwise IP-100,2013-11-06 19:22:00,
2013-11-06 14:27:00,55.1,47.0,30.28,South,180,8.2,14.0,72,0.00,,,0.00,Rainwise IP-100,2013-11-06 19:27:00,
2013-11-06 14:32:00,55.3,47.0,30.28,West,270,8.4,13.0,72,0.00,,,0.00,Rainwise IP-100,2013-11-06 19:32:00,
2013-11-06 14:37:00,55.2,47.0,30.28,WSW,247,3.7,10.0,72,0.00,,,0.00,Rainwise IP-100,2013-11-06 19:37:00,
2013-11-06 14:42:00,54.8,46.0,30.28,SSE,157,1.6,12.0,73,0.00,,,0.00,Rainwise IP-100,2013-11-06 19:42:00,
2013-11-06 14:47:00,54.7,46.0,30.28,SSW,202,4.4,10.0,73,0.00,,,0.00,Rainwise IP-100,2013-11-06 19:47:00,
2013-11-06 14:52:00,54.8,46.0,30.28,South,180,5.8,10.0,73,0.00,,,0.00,Rainwise IP-100,2013-11-06 19:52:00,
2013-11-06 14:57:00,54.6,46.0,30.28,SSE,157,3.5,9.0,73,0.00,,,0.00,Rainwise IP-100,2013-11-06 19:57:00,
2013-11-06 15:02:00,54.3,46.0,30.28,SSW,202,2.3,8.0,73,0.00,,,0.00,Rainwise IP-100,2013-11-06 20:02:00,
2013-11-06 15:07:00,53.7,45.0,30.28,SW,225,6.3,9.0,74,0.00,,,0.00,Rainwise IP-100,2013-11-06 20:07:00,
2013-11-06 15:12:00,53.6,46.0,30.28,SSE,157,5.4,10.0,76,0.00,,,0.00,Rainwise IP-100,2013-11-06 20:12:00,
2013-11-06 15:17:00,54.0,47.0,30.28,WSW,247,5.4,10.0,77,0.00,,,0.00,Rainwise IP-100,2013-11-06 20:17:00,
2013-11-06 15:22:00,54.3,47.0,30.28,SSE,157,2.1,11.0,76,0.00,,,0.00,Rainwise IP-100,2013-11-06 20:22:00,
2013-11-06 15:27:00,54.1,47.0,30.28,SW,225,3.0,14.0,76,0.00,,,0.00,Rainwise IP-100,2013-11-06 20:27:00,
2013-11-06 15:32:00,53.8,46.0,30.27,SW,225,6.5,9.0,76,0.00,,,0.00,Rainwise IP-100,2013-11-06 20:32:00,
2013-11-06 15:37:00,53.5,47.0,30.27,South,180,2.3,11.0,77,0.00,,,0.00,Rainwise IP-100,2013-11-06 20:37:00,
2013-11-06 15:42:00,53.0,46.0,30.27,South,180,4.2,10.0,78,0.00,,,0.00,Rainwise IP-100,2013-11-06 20:42:00,
2013-11-06 15:47:00,52.6,47.0,30.27,SSW,202,3.0,9.0,79,0.00,,,0.00,Rainwise IP-100,2013-11-06 20:47:00,
2013-11-06 15:52:00,52.4,46.0,30.27,SSE,157,3.5,8.0,80,0.00,,,0.00,Rainwise IP-100,2013-11-06 20:52:00,
2013-11-06 15:57:00,52.1,46.0,30.26,SW,225,4.0,6.0,80,0.00,,,0.00,Rainwise IP-100,2013-11-06 20:57:00,
2013-11-06 16:02:00,51.7,47.0,30.27,SSE,157,4.2,8.0,81,0.00,,,0.00,Rainwise IP-100,2013-11-06 21:02:00,
2013-11-06 16:07:00,51.3,46.0,30.26,South,180,3.0,9.0,82,0.00,,,0.00,Rainwise IP-100,2013-11-06 21:07:00,
2013-11-06 16:12:00,51.1,47.0,30.26,South,180,3.5,6.0,83,0.00,,,0.00,Rainwise IP-100,2013-11-06 21:12:00,
2013-11-06 16:17:00,51.0,47.0,30.26,SE,135,3.0,7.0,83,0.00,,,0.00,Rainwise IP-100,2013-11-06 21:17:00,
2013-11-06 16:22:00,50.8,46.0,30.26,South,180,2.6,6.0,84,0.00,,,0.00,Rainwise IP-100,2013-11-06 21:22:00,
2013-11-06 16:27:00,50.6,46.0,30.26,West,270,1.2,8.0,85,0.00,,,0.00,Rainwise IP-100,2013-11-06 21:27:00,
2013-11-06 16:32:00,50.4,46.0,30.26,WSW,247,1.4,9.0,85,0.00,,,0.00,Rainwise IP-100,2013-11-06 21:32:00,
2013-11-06 16:37:00,50.3,46.0,30.26,South,180,1.2,7.0,86,0.00,,,0.00,Rainwise IP-100,2013-11-06 21:37:00,
2013-11-06 16:42:00,50.2,46.0,30.26,SW,225,3.3,7.0,86,0.00,,,0.00,Rainwise IP-100,2013-11-06 21:42:00,
2013-11-06 16:47:00,50.0,46.0,30.26,SW,225,2.1,8.0,87,0.00,,,0.00,Rainwise IP-100,2013-11-06 21:47:00,
2013-11-06 16:52:00,49.9,46.0,30.25,South,180,3.5,7.0,87,0.00,,,0.00,Rainwise IP-100,2013-11-06 21:52:00,
2013-11-06 16:57:00,49.8,47.0,30.25,SSE,157,1.6,7.0,88,0.00,,,0.00,Rainwise IP-100,2013-11-06 21:57:00,
2013-11-06 17:02:00,49.7,47.0,30.25,SSE,157,3.0,8.0,88,0.00,,,0.00,Rainwise IP-100,2013-11-06 22:02:00,
2013-11-06 17:07:00,49.7,47.0,30.25,SE,135,1.2,6.0,88,0.00,,,0.00,Rainwise IP-100,2013-11-06 22:07:00,
2013-11-06 17:12:00,49.6,47.0,30.25,SSE,157,1.4,5.0,89,0.00,,,0.00,Rainwise IP-100,2013-11-06 22:12:00,
2013-11-06 17:17:00,49.5,47.0,30.25,SSE,157,1.6,7.0,89,0.00,,,0.00,Rainwise IP-100,2013-11-06 22:17:00,
2013-11-06 17:22:00,49.5,47.0,30.24,SSE,157,3.3,5.0,89,0.00,,,0.00,Rainwise IP-100,2013-11-06 22:22:00,
2013-11-06 17:27:00,49.4,46.0,30.25,SSW,202,2.3,6.0,89,0.00,,,0.00,Rainwise IP-100,2013-11-06 22:27:00,
2013-11-06 17:32:00,49.3,47.0,30.25,SSW,202,4.2,7.0,90,0.00,,,0.00,Rainwise IP-100,2013-11-06 22:32:00,
2013-11-06 17:37:00,49.4,47.0,30.25,SSE,157,4.4,9.0,90,0.00,,,0.00,Rainwise IP-100,2013-11-06 22:37:00,
2013-11-06 17:42:00,49.5,47.0,30.24,SE,135,2.6,8.0,91,0.00,,,0.00,Rainwise IP-100,2013-11-06 22:42:00,
2013-11-06 17:47:00,49.5,47.0,30.24,SSE,157,2.6,8.0,91,0.00,,,0.00,Rainwise IP-100,2013-11-06 22:47:00,
2013-11-06 17:52:00,49.5,47.0,30.24,SE,135,4.0,7.0,91,0.00,,,0.00,Rainwise IP-100,2013-11-06 22:52:00,
2013-11-06 17:57:00,49.7,47.0,30.24,SSW,202,5.6,7.0,92,0.00,,,0.00,Rainwise IP-100,2013-11-06 22:57:00,
2013-11-06 18:02:00,49.8,47.0,30.24,SSE,157,5.6,9.0,92,0.00,,,0.00,Rainwise IP-100,2013-11-06 23:02:00,
2013-11-06 18:07:00,49.8,47.0,30.23,SSW,202,5.6,8.0,92,0.00,,,0.00,Rainwise IP-100,2013-11-06 23:07:00,
2013-11-06 18:12:00,49.9,47.0,30.24,SSE,157,2.6,8.0,93,0.00,,,0.00,Rainwise IP-100,2013-11-06 23:12:00,
2013-11-06 18:17:00,50.0,47.0,30.23,SSE,157,2.1,7.0,93,0.00,,,0.00,Rainwise IP-100,2013-11-06 23:17:00,
2013-11-06 18:22:00,50.0,47.0,30.23,SSE,157,7.7,8.0,93,0.00,,,0.00,Rainwise IP-100,2013-11-06 23:22:00,
2013-11-06 18:27:00,50.1,47.0,30.23,SSE,157,1.6,8.0,93,0.00,,,0.00,Rainwise IP-100,2013-11-06 23:27:00,
2013-11-06 18:32:00,50.2,47.0,30.23,SSE,157,5.4,8.0,93,0.00,,,0.00,Rainwise IP-100,2013-11-06 23:32:00,
2013-11-06 18:37:00,50.2,48.0,30.23,SSE,157,3.7,9.0,94,0.00,,,0.00,Rainwise IP-100,2013-11-06 23:37:00,
2013-11-06 18:42:00,50.3,48.0,30.22,South,180,5.4,9.0,94,0.00,,,0.00,Rainwise IP-100,2013-11-06 23:42:00,
2013-11-06 18:47:00,50.5,49.0,30.22,SE,135,2.3,8.0,94,0.00,,,0.00,Rainwise IP-100,2013-11-06 23:47:00,
2013-11-06 18:52:00,50.5,49.0,30.22,South,180,4.2,8.0,94,0.00,,,0.00,Rainwise IP-100,2013-11-06 23:52:00,
2013-11-06 18:57:00,50.5,49.0,30.22,SSE,157,4.9,9.0,94,0.00,,,0.00,Rainwise IP-100,2013-11-06 23:57:00,
2013-11-06 19:02:00,50.6,49.0,30.21,SSE,157,2.3,7.0,94,0.00,,,0.00,Rainwise IP-100,2013-11-07 00:02:00,
2013-11-06 19:07:00,50.6,49.0,30.21,ESE,112,3.5,6.0,94,0.00,,,0.00,Rainwise IP-100,2013-11-07 00:07:00,
2013-11-06 19:12:00,50.5,49.0,30.21,SE,135,4.9,6.0,94,0.00,,,0.00,Rainwise IP-100,2013-11-07 00:12:00,
2013-11-06 19:17:00,50.5,49.0,30.21,SSE,157,4.2,6.0,94,0.00,,,0.00,Rainwise IP-100,2013-11-07 00:17:00,
2013-11-06 19:22:00,50.5,49.0,30.21,SSW,202,7.0,7.0,94,0.00,,,0.00,Rainwise IP-100,2013-11-07 00:22:00,
2013-11-06 19:27:00,50.5,49.0,30.21,SSE,157,3.3,7.0,94,0.00,,,0.00,Rainwise IP-100,2013-11-07 00:27:00,
2013-11-06 19:32:00,50.5,49.0,30.21,SW,225,3.5,6.0,94,0.00,,,0.00,Rainwise IP-100,2013-11-07 00:32:00,
2013-11-06 19:37:00,50.5,49.0,30.20,SW,225,4.7,9.0,94,0.00,,,0.00,Rainwise IP-100,2013-11-07 00:37:00,
2013-11-06 19:42:00,50.6,49.0,30.20,SSW,202,1.4,7.0,95,0.00,,,0.00,Rainwise IP-100,2013-11-07 00:42:00,
2013-11-06 19:47:00,50.7,49.0,30.20,SE,135,2.6,6.0,95,0.00,,,0.00,Rainwise IP-100,2013-11-07 00:47:00,
2013-11-06 19:52:00,50.7,49.0,30.20,SSE,157,3.3,8.0,95,0.00,,,0.00,Rainwise IP-100,2013-11-07 00:52:00,
2013-11-06 19:57:00,50.8,49.0,30.20,ESE,112,5.1,6.0,95,0.00,,,0.00,Rainwise IP-100,2013-11-07 00:57:00,
2013-11-06 20:02:00,50.8,49.0,30.19,South,180,7.5,7.5,95,0.00,,,0.00,Rainwise IP-100,2013-11-07 01:02:00,
2013-11-06 20:07:00,50.8,49.0,30.19,SE,135,3.7,9.0,95,0.00,,,0.00,Rainwise IP-100,2013-11-07 01:07:00,
2013-11-06 20:12:00,50.9,50.0,30.18,SE,135,2.6,7.0,95,0.00,,,0.00,Rainwise IP-100,2013-11-07 01:12:00,
2013-11-06 20:17:00,51.0,50.0,30.18,South,180,3.5,7.0,96,0.00,,,0.00,Rainwise IP-100,2013-11-07 01:17:00,
2013-11-06 20:22:00,51.1,50.0,30.19,SSW,202,2.6,8.0,96,0.00,,,0.00,Rainwise IP-100,2013-11-07 01:22:00,
2013-11-06 20:27:00,51.2,50.0,30.18,SSW,202,3.0,6.0,96,0.00,,,0.00,Rainwise IP-100,2013-11-07 01:27:00,
2013-11-06 20:32:00,51.3,50.0,30.18,SSE,157,3.5,7.0,96,0.00,,,0.00,Rainwise IP-100,2013-11-07 01:32:00,
2013-11-06 20:37:00,51.4,50.0,30.17,SSE,157,2.8,9.0,96,0.00,,,0.00,Rainwise IP-100,2013-11-07 01:37:00,
2013-11-06 20:42:00,51.3,50.0,30.18,SE,135,1.4,4.0,96,0.00,,,0.00,Rainwise IP-100,2013-11-07 01:42:00,
2013-11-06 20:47:00,51.2,50.0,30.17,SSE,157,3.3,8.0,96,0.00,,,0.00,Rainwise IP-100,2013-11-07 01:47:00,
2013-11-06 20:52:00,51.2,50.0,30.17,ESE,112,1.6,8.0,96,0.00,,,0.00,Rainwise IP-100,2013-11-07 01:52:00,
2013-11-06 20:57:00,51.2,50.0,30.16,SSE,157,3.3,9.0,96,0.00,,,0.00,Rainwise IP-100,2013-11-07 01:57:00,
2013-11-06 21:02:00,51.2,50.0,30.16,SE,135,2.8,8.0,96,0.00,,,0.00,Rainwise IP-100,2013-11-07 02:02:00,
2013-11-06 21:07:00,51.1,50.0,30.16,SSE,157,4.7,10.0,96,0.00,,,0.00,Rainwise IP-100,2013-11-07 02:07:00,
2013-11-06 21:12:00,51.3,50.0,30.15,South,180,4.9,8.0,96,0.00,,,0.00,Rainwise IP-100,2013-11-07 02:12:00,
2013-11-06 21:17:00,51.4,50.0,30.16,SE,135,1.6,8.0,97,0.00,,,0.00,Rainwise IP-100,2013-11-07 02:17:00,
2013-11-06 21:22:00,51.5,51.0,30.16,SE,135,4.2,6.0,97,0.00,,,0.00,Rainwise IP-100,2013-11-07 02:22:00,
2013-11-06 21:27:00,51.5,51.0,30.15,SSE,157,7.2,9.0,97,0.00,,,0.00,Rainwise IP-100,2013-11-07 02:27:00,
2013-11-06 21:32:00,51.6,51.0,30.15,South,180,3.3,7.0,97,0.00,,,0.00,Rainwise IP-100,2013-11-07 02:32:00,
2013-11-06 21:37:00,51.6,51.0,30.15,ESE,112,4.2,10.0,97,0.00,,,0.00,Rainwise IP-100,2013-11-07 02:37:00,
2013-11-06 21:42:00,51.6,51.0,30.15,SSE,157,3.5,8.0,97,0.00,,,0.00,Rainwise IP-100,2013-11-07 02:42:00,
2013-11-06 21:47:00,51.6,51.0,30.15,SSW,202,7.7,9.0,97,0.00,,,0.00,Rainwise IP-100,2013-11-07 02:47:00,
2013-11-06 21:52:00,51.7,51.0,30.15,SSW,202,4.7,11.0,97,0.00,,,0.00,Rainwise IP-100,2013-11-07 02:52:00,
2013-11-06 21:57:00,51.8,51.0,30.14,SW,225,7.9,10.0,97,0.00,,,0.00,Rainwise IP-100,2013-11-07 02:57:00,
2013-11-06 22:02:00,51.9,51.0,30.14,South,180,3.5,7.0,97,0.00,,,0.00,Rainwise IP-100,2013-11-07 03:02:00,
2013-11-06 22:07:00,51.9,51.0,30.14,SSE,157,4.9,11.0,97,0.00,,,0.00,Rainwise IP-100,2013-11-07 03:07:00,
2013-11-06 22:12:00,52.1,51.0,30.14,West,270,3.0,9.0,97,0.00,,,0.00,Rainwise IP-100,2013-11-07 03:12:00,
2013-11-06 22:17:00,52.3,51.0,30.13,SSW,202,4.7,11.0,97,0.00,,,0.00,Rainwise IP-100,2013-11-07 03:17:00,
2013-11-06 22:22:00,52.4,51.0,30.13,SSE,157,1.6,11.0,97,0.00,,,0.00,Rainwise IP-100,2013-11-07 03:22:00,
2013-11-06 22:27:00,52.5,52.0,30.13,WSW,247,7.7,13.0,97,0.00,,,0.00,Rainwise IP-100,2013-11-07 03:27:00,
2013-11-06 22:32:00,52.6,51.0,30.13,SSW,202,8.2,15.0,96,0.00,,,0.00,Rainwise IP-100,2013-11-07 03:32:00,
2013-11-06 22:37:00,52.8,51.0,30.13,SSW,202,2.1,13.0,96,0.00,,,0.00,Rainwise IP-100,2013-11-07 03:37:00,
2013-11-06 22:42:00,52.9,51.0,30.13,WSW,247,4.4,13.0,95,0.00,,,0.00,Rainwise IP-100,2013-11-07 03:42:00,
2013-11-06 22:47:00,52.9,51.0,30.12,SSE,157,3.7,14.0,94,0.00,,,0.00,Rainwise IP-100,2013-11-07 03:47:00,
2013-11-06 22:52:00,52.9,51.0,30.12,WSW,247,3.0,13.0,94,0.00,,,0.00,Rainwise IP-100,2013-11-07 03:52:00,
2013-11-06 22:57:00,52.9,51.0,30.12,SW,225,8.2,14.0,94,0.00,,,0.00,Rainwise IP-100,2013-11-07 03:57:00,
2013-11-06 23:02:00,52.9,51.0,30.12,WSW,247,3.3,11.0,94,0.00,,,0.00,Rainwise IP-100,2013-11-07 04:02:00,
2013-11-06 23:07:00,52.9,51.0,30.11,WSW,247,5.1,12.0,94,0.00,,,0.00,Rainwise IP-100,2013-11-07 04:07:00,
2013-11-06 23:12:00,52.9,51.0,30.12,WSW,247,6.5,10.0,94,0.00,,,0.00,Rainwise IP-100,2013-11-07 04:12:00,
2013-11-06 23:17:00,52.9,51.0,30.11,SSW,202,3.5,12.0,94,0.00,,,0.00,Rainwise IP-100,2013-11-07 04:17:00,
2013-11-06 23:22:00,52.9,51.0,30.11,WSW,247,4.0,13.0,94,0.00,,,0.00,Rainwise IP-100,2013-11-07 04:22:00,
2013-11-06 23:27:00,52.9,51.0,30.11,SW,225,4.0,10.0,94,0.00,,,0.00,Rainwise IP-100,2013-11-07 04:27:00,
2013-11-06 23:32:00,52.8,51.0,30.11,SSW,202,2.6,9.0,94,0.00,,,0.00,Rainwise IP-100,2013-11-07 04:32:00,
2013-11-06 23:37:00,52.8,51.0,30.11,SW,225,1.6,7.0,94,0.00,,,0.00,Rainwise IP-100,2013-11-07 04:37:00,
2013-11-06 23:42:00,52.8,51.0,30.10,SW,225,8.9,12.0,94,0.00,,,0.00,Rainwise IP-100,2013-11-07 04:42:00,
2013-11-06 23:47:00,52.8,51.0,30.10,SW,225,3.5,11.0,94,0.00,,,0.00,Rainwise IP-100,2013-11-07 04:47:00,
2013-11-06 23:52:00,52.7,51.0,30.10,SW,225,2.3,10.0,94,0.00,,,0.00,Rainwise IP-100,2013-11-07 04:52:00,
2013-11-06 23:57:00,52.8,51.0,30.10,SSW,202,2.6,10.0,95,0.00,,,0.00,Rainwise IP-100,2013-11-07 04:57:00,